Tracking 27122 objects as of 25-Mar-2023
HD Live streaming from Space Station
objects crossing your sky now

SL-6 R/B(2)

Track SL-6 R/B(2) now!


NORAD ID: 13897
Int'l Code: 1983-019D
Perigee: 302.2 km
Apogee: 40,742.8 km
Inclination: 62.8 °
Period: 731.5 minutes
Semi major axis: 26893 km
RCS: 8.0304 m2 (large)
Launch date: March 16, 1983
Source: Commonwealth of Independent States (former USSR) (CIS)
Launch site: PLESETSK MISSILE AND SPACE COMPLEX (PKMTR)

Note: This is a ROCKET BODY
Your satellite tracking list
Your tracking list is empty




NASA's NSSDC Master Catalog

Two Line Element Set (TLE):
1 13897U 83019D   23083.11512912 -.00000197  00000-0  83683-3 0  9996
2 13897  62.8316  16.1085 7518643 267.5983  13.6565  1.96848170287345
Source of the keplerian elements: AFSPC